Location: Asheville, NC
(35.6000°N, 82.5500°W)
Time: 10:07:36

Vanguard 1 Rocket - Pass Details

Date: 10 March 2018
Orbit: 655 x 4222 km, 34.3° (Epoch: 18 March)

Event Time Altitude Azimuth Distance (km) Brightness Sun altitude
Rises 03:27:40 0° 283° (WNW) 7,644 - -40.2°
Reaches altitude 10° 03:34:11 10° 271° (W) 7,011 - -39.1°
Maximum altitude 03:51:20 24° 228° (SW) 6,230 - -35.9°
Exits shadow 04:00:24 20° 202° (SSW) 6,402 11.3 -34.3°
Drops below altitude 10° 04:08:34 10° 183° (S) 6,882 11.6 -32.7°
Sets 04:15:10 0° 170° (S) 7,459 12.0 -31.5°
